Time,TemperatureF,DewpointF,PressureIn,WindDirection,WindDirectionDegrees,WindSpeedMPH,WindSpeedGustMPH,Humidity,HourlyPrecipIn,Conditions,Clouds,dailyrainin,SoftwareType,DateUTC
2015-07-07 00:03:00,64.0,59.0,30.12,SSW,196,5.0,8.0,84,-99.99,,,-99.99,,2015-07-07 04:03:00,
2015-07-07 00:13:00,63.0,58.0,30.12,SW,225,4.0,9.0,85,-99.99,,,-99.99,,2015-07-07 04:13:00,
2015-07-07 00:23:00,64.0,59.0,30.11,SW,217,5.0,8.0,84,-99.99,,,-99.99,,2015-07-07 04:23:00,
2015-07-07 00:33:00,63.0,58.0,30.11,SSW,204,4.0,7.0,84,-99.99,,,-99.99,,2015-07-07 04:33:00,
2015-07-07 00:43:00,63.0,58.0,30.11,SSW,208,4.0,6.0,85,-99.99,,,-99.99,,2015-07-07 04:43:00,
2015-07-07 01:03:00,62.0,58.0,30.11,SW,221,4.0,5.0,86,-99.99,,,-99.99,,2015-07-07 05:03:00,
2015-07-07 01:13:00,62.0,58.0,30.11,SSW,200,3.0,5.0,86,-99.99,,,-99.99,,2015-07-07 05:13:00,
2015-07-07 01:23:00,62.0,58.0,30.11,SSW,202,3.0,5.0,86,-99.99,,,-99.99,,2015-07-07 05:23:00,
2015-07-07 01:34:00,61.0,57.0,30.11,South,169,2.0,4.0,88,-99.99,,,-99.99,,2015-07-07 05:34:00,
2015-07-07 01:44:00,60.0,57.0,30.11,SSE,157,4.0,4.0,90,-99.99,,,-99.99,,2015-07-07 05:44:00,
2015-07-07 01:53:00,60.0,58.0,30.11,SSE,161,4.0,5.0,92,-99.99,,,-99.99,,2015-07-07 05:53:00,
2015-07-07 02:03:00,60.0,58.0,30.11,SSE,165,4.0,5.0,92,-99.99,,,-99.99,,2015-07-07 06:03:00,
2015-07-07 02:13:00,61.0,58.0,30.11,South,175,4.0,6.0,91,-99.99,,,-99.99,,2015-07-07 06:13:00,
2015-07-07 02:23:00,61.0,58.0,30.11,South,191,4.0,7.0,91,-99.99,,,-99.99,,2015-07-07 06:23:00,
2015-07-07 02:34:00,61.0,58.0,30.11,SSE,165,3.0,7.0,90,-99.99,,,-99.99,,2015-07-07 06:34:00,
2015-07-07 02:44:00,60.0,57.0,30.11,SSE,158,4.0,5.0,91,-99.99,,,-99.99,,2015-07-07 06:44:00,
2015-07-07 02:54:00,59.0,57.0,30.11,SSE,157,3.0,4.0,93,-99.99,,,-99.99,,2015-07-07 06:54:00,
2015-07-07 03:03:00,59.0,57.0,30.11,SSE,157,3.0,4.0,94,-99.99,,,-99.99,,2015-07-07 07:03:00,
2015-07-07 03:13:00,59.0,57.0,30.11,SE,142,4.0,5.0,94,-99.99,,,-99.99,,2015-07-07 07:13:00,
2015-07-07 03:23:00,58.0,57.0,30.11,SSE,147,6.0,7.0,95,-99.99,,,-99.99,,2015-07-07 07:23:00,
2015-07-07 03:33:00,58.0,57.0,30.11,SSE,152,6.0,8.0,96,-99.99,,,-99.99,,2015-07-07 07:33:00,
2015-07-07 03:44:00,58.0,57.0,30.11,SE,132,5.0,7.0,95,-99.99,,,-99.99,,2015-07-07 07:44:00,
2015-07-07 03:53:00,58.0,57.0,30.10,SE,144,5.0,7.0,96,-99.99,,,-99.99,,2015-07-07 07:53:00,
2015-07-07 04:03:00,58.0,57.0,30.10,SE,140,5.0,7.0,96,-99.99,,,-99.99,,2015-07-07 08:03:00,
2015-07-07 04:13:00,58.0,57.0,30.10,SE,141,5.0,6.0,96,-99.99,,,-99.99,,2015-07-07 08:13:00,
2015-07-07 04:23:00,58.0,57.0,30.10,SSE,159,6.0,8.0,97,-99.99,,,-99.99,,2015-07-07 08:23:00,
2015-07-07 04:33:00,58.0,57.0,30.10,SSE,154,4.0,8.0,97,-99.99,,,-99.99,,2015-07-07 08:33:00,
2015-07-07 04:43:00,58.0,57.0,30.10,SE,146,4.0,6.0,96,-99.99,,,-99.99,,2015-07-07 08:43:00,
2015-07-07 04:53:00,58.0,57.0,30.10,SE,138,5.0,6.0,97,-99.99,,,-99.99,,2015-07-07 08:53:00,
2015-07-07 05:03:00,58.0,57.0,30.10,SSE,151,6.0,8.0,97,-99.99,,,-99.99,,2015-07-07 09:03:00,
2015-07-07 05:13:00,58.0,57.0,30.10,SE,140,6.0,8.0,97,-99.99,,,-99.99,,2015-07-07 09:13:00,
2015-07-07 05:23:00,57.0,56.0,30.10,SE,142,5.0,7.0,97,-99.99,,,-99.99,,2015-07-07 09:23:00,
2015-07-07 05:33:00,58.0,57.0,30.11,SE,144,5.0,7.0,97,-99.99,,,-99.99,,2015-07-07 09:33:00,
2015-07-07 05:44:00,58.0,57.0,30.11,SE,131,5.0,7.0,98,-99.99,,,-99.99,,2015-07-07 09:44:00,
2015-07-07 05:53:00,58.0,57.0,30.11,SSE,150,5.0,7.0,98,-99.99,,,-99.99,,2015-07-07 09:53:00,
2015-07-07 06:03:00,58.0,57.0,30.11,South,174,4.0,7.0,98,-99.99,,,-99.99,,2015-07-07 10:03:00,
2015-07-07 06:13:00,58.0,57.0,30.12,South,179,3.0,5.0,98,-99.99,,,-99.99,,2015-07-07 10:13:00,
2015-07-07 06:23:00,58.0,57.0,30.12,South,176,6.0,9.0,98,-99.99,,,-99.99,,2015-07-07 10:23:00,
2015-07-07 06:33:00,59.0,58.0,30.13,South,188,6.0,8.0,98,-99.99,,,-99.99,,2015-07-07 10:33:00,
2015-07-07 06:43:00,59.0,58.0,30.12,South,186,5.0,8.0,98,-99.99,,,-99.99,,2015-07-07 10:43:00,
2015-07-07 06:53:00,59.0,59.0,30.12,South,170,6.0,8.0,99,-99.99,,,-99.99,,2015-07-07 10:53:00,
2015-07-07 07:04:00,60.0,59.0,30.13,South,170,4.0,6.0,98,-99.99,,,-99.99,,2015-07-07 11:04:00,
2015-07-07 07:13:00,60.0,60.0,30.13,South,178,5.0,8.0,99,-99.99,,,-99.99,,2015-07-07 11:13:00,
2015-07-07 07:24:00,60.0,59.0,30.13,South,175,6.0,7.0,98,-99.99,,,-99.99,,2015-07-07 11:24:00,
2015-07-07 07:35:00,61.0,60.0,30.13,South,176,4.0,8.0,98,-99.99,,,-99.99,,2015-07-07 11:35:00,
2015-07-07 07:44:00,63.0,62.0,30.13,SSW,213,3.0,6.0,98,-99.99,,,-99.99,,2015-07-07 11:44:00,
2015-07-07 07:54:00,64.0,63.0,30.13,SSW,196,1.0,4.0,96,-99.99,,,-99.99,,2015-07-07 11:54:00,
2015-07-07 08:04:00,65.0,63.0,30.13,SSE,153,2.0,4.0,93,-99.99,,,-99.99,,2015-07-07 12:04:00,
2015-07-07 08:13:00,65.0,63.0,30.13,SE,137,3.0,5.0,94,-99.99,,,-99.99,,2015-07-07 12:13:00,
2015-07-07 08:23:00,66.0,64.0,30.13,SE,138,3.0,6.0,92,-99.99,,,-99.99,,2015-07-07 12:23:00,
2015-07-07 08:34:00,67.0,64.0,30.13,SSE,153,2.0,4.0,90,-99.99,,,-99.99,,2015-07-07 12:34:00,
2015-07-07 08:44:00,67.0,64.0,30.13,SE,142,3.0,5.0,90,-99.99,,,-99.99,,2015-07-07 12:44:00,
2015-07-07 09:03:00,69.0,66.0,30.12,South,171,6.0,8.0,89,-99.99,,,-99.99,,2015-07-07 13:03:00,
2015-07-07 09:23:00,69.0,65.0,30.11,SSE,149,5.0,9.0,87,-99.99,,,-99.99,,2015-07-07 13:23:00,
2015-07-07 09:34:00,70.0,66.0,30.11,SSE,165,4.0,7.0,86,-99.99,,,-99.99,,2015-07-07 13:34:00,
2015-07-07 09:43:00,71.0,67.0,30.11,South,173,6.0,9.0,86,-99.99,,,-99.99,,2015-07-07 13:43:00,
2015-07-07 09:53:00,71.0,67.0,30.11,SSW,209,5.0,9.0,86,-99.99,,,-99.99,,2015-07-07 13:53:00,
2015-07-07 10:03:00,72.0,67.0,30.11,South,191,7.0,9.0,85,-99.99,,,-99.99,,2015-07-07 14:03:00,
2015-07-07 10:13:00,73.0,68.0,30.11,WSW,246,7.0,11.0,84,-99.99,,,-99.99,,2015-07-07 14:13:00,
2015-07-07 10:23:00,74.0,68.0,30.11,South,189,6.0,11.0,83,-99.99,,,-99.99,,2015-07-07 14:23:00,
2015-07-07 10:33:00,74.0,67.0,30.11,South,174,8.0,11.0,80,-99.99,,,-99.99,,2015-07-07 14:33:00,
2015-07-07 10:43:00,75.0,68.0,30.11,SSE,166,6.0,10.0,78,-99.99,,,-99.99,,2015-07-07 14:43:00,
2015-07-07 10:53:00,75.0,68.0,30.11,South,173,5.0,11.0,80,-99.99,,,-99.99,,2015-07-07 14:53:00,
2015-07-07 11:03:00,75.0,67.0,30.11,SW,219,8.0,13.0,76,-99.99,,,-99.99,,2015-07-07 15:03:00,
2015-07-07 11:23:00,75.0,67.0,30.11,SW,216,8.0,13.0,76,-99.99,,,-99.99,,2015-07-07 15:23:00,
2015-07-07 11:33:00,75.0,66.0,30.11,SSW,208,10.0,17.0,74,-99.99,,,-99.99,,2015-07-07 15:33:00,
2015-07-07 11:44:00,76.0,67.0,30.10,SSW,209,8.0,14.0,73,-99.99,,,-99.99,,2015-07-07 15:44:00,
2015-07-07 11:53:00,75.0,67.0,30.10,SW,219,6.0,12.0,77,-99.99,,,-99.99,,2015-07-07 15:53:00,
2015-07-07 12:03:00,75.0,67.0,30.10,SW,234,9.0,14.0,75,-99.99,,,-99.99,,2015-07-07 16:03:00,
2015-07-07 12:13:00,75.0,68.0,30.10,SSW,198,9.0,14.0,78,-99.99,,,-99.99,,2015-07-07 16:13:00,
2015-07-07 12:23:00,75.0,67.0,30.09,SW,221,11.0,16.0,77,-99.99,,,-99.99,,2015-07-07 16:23:00,
2015-07-07 12:34:00,75.0,66.0,30.09,SSW,202,9.0,15.0,73,-99.99,,,-99.99,,2015-07-07 16:34:00,